Location: Bun
(42.9667°N, 0.1500°W)
Time: 03:26:36
(UTC+00:00)

IRIDIUM 114 - Pass Details

Date: 03 February 2023
Orbit: 776 x 779 km, 86.4° (Epoch: 26 March)

Event Time Altitude Azimuth Distance (km) Brightness Sun altitude
Rises 18:36:24 0° 360° (N) 3,274 7.5 -15.1°
Reaches altitude 10° 18:38:48 10° 3° (N) 2,342 6.7 -15.5°
Maximum altitude 18:44:00 64° 85° (E) 865 4.3 -16.4°
Drops below altitude 10° 18:49:09 10° 167° (SSE) 2,323 6.7 -17.4°
Sets 18:51:31 0° 170° (S) 3,245 7.5 -17.8°
